Tracking 28126 objects as of 1-Oct-2023
HD Live streaming from Space Station
objects crossing your sky now

STARLINK-4259

Track STARLINK-4259 now!
10-day predictions
STARLINK-4259 is classified as:


NORAD ID: 52987
Int'l Code: 2022-076B
Perigee: 545.8 km
Apogee: 547.9 km
Inclination: 53.2 °
Period: 95.4 minutes
Semi major axis: 6917 km
RCS: Unknown
Launch date: July 7, 2022
Source: United States (US)
Launch site: AIR FORCE EASTERN TEST RANGE (AFETR)
Your satellite tracking list
Your tracking list is empty




NASA's NSSDC Master Catalog

Two Line Element Set (TLE):
1 52987U 22076B   23273.35838436 -.00000656  00000-0 -23154-4 0  9993
2 52987  53.2153 145.4650 0001501  92.4537 267.6627 15.08842499 68611
Source of the keplerian elements: AFSPC